Location: Cassano d�Adda
(45.5333°N, 9.5167°E)
Time: 12:47:27
(UTC+00:00)

Aureole 1 Rocket - Pass Details

Date: 08 December 2019
Orbit: 378 x 1382 km, 73.9° (Epoch: 18 January)

Event Time Altitude Azimuth Distance (km) Brightness Sun altitude
Rises 17:13:41 0° 182° (S) 2,264 6.2 -16.0°
Reaches altitude 10° 17:15:45 10° 173° (S) 1,391 5.0 -16.3°
Enters shadow 17:17:52 31° 133° (SE) 698 3.1 -16.7°
